Temp
13 13 13 13 12 12 12 12 11 11 11 11 10 10 10 10 9 10 9 10 10 10 10 10 10 10 10 10 10 9 9 9 9 8 8 8 8 8 8 8 8 8 7 7 6 6 7 7 6 6 6 6 6 6 6 7 7 7 7 7 7 7 7 6 4 2 3 3 3 3 3 3 3 3 3 2 2 1 1 1 1 2 2 1 1
13 13 13 13 12 12 12 12 11 11 10 10 10 10 10 9 9 9 9 9 9 9 9 9 9 9 9 10 9 9 9 8 8 8 8 8 7 7 7 7 7 7 6 6 6 6 6 6 6 5 5 5 5 6 6 6 6 6 6 6 6 6 6 6 4 2 2 3 3 3 2 2 2 2 1 1 1 1 1 1 1 1 1 1 1
13 12 12 12 12 12 12 11 11 11 10 10 10 10 9 9 9 9 8 8 8 8 8 9 9 9 9 9 9 8 8 8 8 8 7 7 7 7 7 6 6 7 6 6 6 5 5 5 5 5 5 5 5 5 5 5 5 5 5 6 6 5 6 6 5 3 2 2 2 2 2 1 1 1 0 -0 -0 0 0 0 0 1 1 1 0
12 12 12 12 12 12 11 11 11 10 10 10 10 10 9 9 8 8 8 8 8 8 8 8 8 8 9 9 8 8 8 8 7 7 7 7 6 6 6 6 6 6 6 6 5 5 5 5 4 4 4 4 4 4 4 4 5 5 5 5 5 5 5 5 5 4 3 2 1 1 1 1 0 0 -0 -1 -0 -0 -0 -0 0 0 0 -0 -0
12 11 11 11 11 11 11 11 11 10 10 10 10 9 9 8 8 8 7 7 7 7 8 8 8 8 8 8 8 8 8 8 7 7 7 6 6 6 6 6 6 6 6 5 5 5 5 4 4 4 3 3 3 3 3 4 4 5 4 4 4 5 4 4 4 4 3 2 1 1 0 0 -0 -0 -1 -1 -1 -1 -1 -1 -0 -0 -1 -1 -1
11 11 11 11 11 11 11 11 11 10 10 10 10 9 9 8 8 7 7 7 7 7 7 7 7 7 8 8 8 8 8 7 7 7 6 6 5 5 5 5 5 5 5 5 5 5 4 4 4 4 3 3 3 3 4 4 4 4 4 4 4 4 4 3 3 2 2 2 1 0 0 -0 -1 -1 -1 -1 -1 -1 -1 -1 -1 -1 -1 -1 -1
11 11 11 11 11 11 11 11 11 11 10 10 9 9 9 8 8 7 7 7 7 6 6 7 7 7 7 7 7 7 7 7 7 6 6 5 5 5 4 4 4 4 4 4 4 4 4 4 4 3 3 3 3 3 4 4 4 4 4 4 3 3 3 2 2 2 1 1 -0 -0 -0 -1 -1 -1 -1 -1 -2 -2 -2 -2 -2 -2 -2 -2 -2
12 11 11 11 11 11 11 11 11 10 10 10 9 9 9 8 8 7 7 6 6 6 6 6 6 6 6 7 7 7 6 6 6 6 5 5 4 4 4 4 4 4 3 3 3 3 3 3 3 3 3 3 3 4 4 4 3 3 3 3 3 3 2 2 1 1 1 0 -0 -1 -1 -1 -1 -1 -1 -2 -2 -2 -2 -2 -2 -2 -3 -3 -3
12 12 11 11 13 12 11 11 11 10 10 9 9 9 8 8 8 7 6 6 6 6 6 6 6 6 6 6 6 6 6 6 6 5 5 4 4 3 3 3 3 3 3 3 2 2 2 3 3 3 2 3 3 4 4 4 4 4 3 3 3 2 2 2 1 1 0 -0 -0 -1 -2 -2 -2 -2 -2 -2 -2 -3 -3 -3 -3 -3 -3 -4 -4
12 11 11 12 14 13 11 10 10 10 9 9 8 8 8 8 7 7 6 6 6 5 5 5 5 5 5 5 5 5 5 5 5 5 5 4 3 3 3 3 3 3 2 2 1 1 2 2 2 2 2 3 3 4 4 4 4 4 3 3 3 2 2 1 1 0 -0 -0 -1 -2 -3 -3 -2 -2 -3 -3 -3 -3 -3 -4 -4 -4 -4 -5 -5
12 11 11 13 13 12 11 10 10 9 9 9 8 8 7 7 7 6 6 5 5 5 5 5 5 5 5 5 5 5 5 5 5 4 4 3 3 2 2 2 2 2 2 1 1 0 1 1 2 2 2 3 3 3 3 3 3 3 3 2 2 2 1 1 1 0 -0 -1 -1 -2 -3 -3 -3 -3 -3 -3 -4 -4 -4 -4 -5 -5 -5 -5 -5
12 12 12 13 12 11 10 10 9 9 8 8 8 7 7 7 6 6 5 5 5 4 4 4 4 4 4 4 4 4 4 4 4 3 3 2 2 2 2 2 2 2 1 1 1 1 1 1 1 2 3 3 3 2 2 2 2 2 2 1 1 1 1 1 0 -0 -1 -1 -2 -2 -3 -3 -3 -4 -4 -4 -4 -5 -5 -5 -5 -5 -5 -6 -6
12 12 12 12 10 10 9 8 8 8 8 8 7 7 6 6 6 5 5 5 4 4 4 4 4 4 4 3 3 3 3 3 3 2 2 2 2 2 2 2 2 1 1 1 1 1 1 1 1 2 2 2 2 2 2 2 1 1 1 0 0 0 0 0 -0 -1 -1 -2 -2 -3 -3 -4 -4 -4 -4 -5 -5 -5 -5 -5 -5 -6 -6 -6 -6
11 12 12 11 10 9 8 8 8 8 8 7 7 7 6 6 6 5 5 4 4 3 3 3 3 3 3 3 3 3 3 2 2 2 1 1 1 1 2 2 2 1 1 1 1 2 2 2 2 2 2 2 2 2 2 1 1 0 0 0 -0 -0 -0 -1 -1 -1 -2 -2 -3 -3 -4 -4 -5 -5 -5 -5 -5 -5 -5 -5 -6 -6 -6 -6 -6
11 11 11 10 9 9 8 8 8 7 7 7 6 6 6 5 5 5 4 4 4 3 3 3 3 3 3 2 2 2 2 2 1 1 1 0 1 1 1 1 1 1 1 1 1 2 2 2 2 2 2 2 2 2 1 1 1 0 0 -0 -0 -0 -1 -1 -2 -2 -3 -3 -4 -4 -4 -5 -5 -5 -5 -5 -5 -5 -5 -6 -6 -6 -6 -6 -6
11 11 10 10 9 9 9 8 7 7 6 6 6 5 5 5 5 4 4 3 3 3 3 3 3 3 2 2 1 1 1 1 0 1 1 0 1 1 1 1 1 1 0 0 1 1 1 2 2 2 2 2 1 1 1 1 0 0 -0 -0 -1 -1 -1 -2 -2 -3 -3 -4 -4 -5 -5 -5 -5 -5 -5 -5 -5 -5 -6 -6 -6 -6 -6 -6 -6
11 11 10 10 10 9 8 7 7 6 6 5 5 5 4 4 4 4 3 3 2 2 2 2 2 2 2 1 0 0 0 0 0 1 1 1 1 0 0 0 0 0 -0 -0 0 0 1 1 2 2 2 1 1 0 0 0 -0 -0 -1 -1 -1 -1 -2 -3 -3 -3 -4 -4 -5 -5 -5 -5 -5 -5 -5 -6 -6 -6 -6 -6 -6 -6 -6 -7 -7
11 10 10 10 9 8 8 7 7 6 6 5 5 4 4 4 4 3 3 2 2 2 2 2 2 1 1 0 -0 -0 -0 -0 0 0 0 1 1 0 0 -0 -0 -1 -1 -1 -0 0 0 1 2 2 1 1 0 0 -0 -0 -0 -1 -1 -1 -2 -2 -3 -3 -4 -4 -5 -5 -5 -5 -6 -6 -6 -6 -6 -6 -6 -6 -6 -7 -7 -7 -8 -8 -8
10 10 9 9 8 8 7 7 6 6 5 5 5 4 4 4 3 3 2 2 2 2 1 1 1 0 -0 -0 -0 -0 -0 -0 -0 -0 0 0 0 0 0 -0 -1 -1 -1 -1 -1 -1 0 1 2 1 1 0 0 -0 -0 -1 -1 -1 -1 -2 -2 -3 -4 -4 -4 -5 -5 -6 -6 -6 -6 -6 -6 -7 -7 -7 -7 -7 -7 -8 -8 -8 -9 -9 -9
10 9 8 8 7 7 7 6 6 6 5 5 4 4 4 3 2 2 1 1 1 1 0 0 -0 -0 -1 -1 -1 -1 -1 -1 -1 -1 -0 -0 -0 0 -0 -1 -1 -2 -2 -2 -2 -2 -0 1 1 0 -0 -0 -0 -1 -1 -1 -1 -1 -1 -2 -3 -3 -4 -5 -5 -5 -6 -6 -6 -6 -7 -7 -7 -7 -7 -7 -8 -8 -8 -9 -9 -9 -10 -10 -10
8 7 7 7 6 6 6 6 5 5 5 5 4 3 3 2 2 1 1 0 0 -0 -0 -1 -1 -1 -1 -1 -1 -1 -1 -1 -1 -1 -1 -1 -1 -0 -0 -0 -1 -1 -2 -2 -2 -1 -1 0 -0 -1 -1 -0 -1 -1 -1 -1 -1 -2 -2 -3 -3 -4 -5 -5 -5 -6 -6 -6 -7 -7 -7 -7 -7 -8 -8 -8 -9 -9 -9 -10 -10 -10 -11 -11 -11
6 6 6 6 5 5 5 5 5 5 4 4 3 2 2 2 1 1 0 -0 -0 -1 -1 -2 -2 -2 -2 -2 -2 -2 -1 -1 -2 -2 -2 -1 -1 -1 -0 -0 -0 -0 -2 -2 -2 -1 -0 -0 -0 -1 -1 -1 -1 -1 -1 -2 -2 -2 -3 -4 -4 -5 -5 -5 -6 -6 -6 -7 -7 -7 -8 -8 -8 -8 -9 -9 -10 -10 -10 -11 -11 -11 -11 -12 -12
5 5 5 5 5 4 4 4 4 4 4 3 2 2 1 0 0 -0 -0 -1 -1 -2 -2 -2 -3 -3 -3 -3 -2 -2 -2 -2 -2 -2 -2 -2 -2 -1 -1 -0 -0 -0 -1 -2 -1 -0 0 -0 -0 -1 -1 -1 -1 -2 -2 -2 -3 -3 -4 -5 -5 -5 -5 -6 -6 -7 -7 -7 -8 -8 -8 -9 -9 -9 -10 -10 -11 -11 -11 -11 -12 -12 -12 -12 -12
4 4 4 4 4 4 4 4 3 3 3 2 1 1 -0 -0 -1 -1 -1 -1 -2 -3 -3 -3 -3 -4 -4 -3 -3 -2 -2 -2 -2 -2 -2 -2 -2 -2 -1 -1 -1 -1 -1 -1 -0 0 -0 -0 -1 -1 -1 -2 -2 -2 -3 -3 -4 -4 -5 -5 -5 -5 -6 -6 -7 -7 -7 -8 -8 -9 -9 -9 -10 -10 -10 -11 -11 -11 -11 -12 -12 -13 -13 -13 -13
3 3 3 3 3 3 3 2 2 2 2 1 1 -0 -1 -1 -1 -2 -2 -2 -3 -4 -4 -4 -4 -4 -4 -4 -4 -3 -3 -3 -3 -3 -3 -3 -3 -2 -2 -2 -2 -1 -1 -0 0 0 -0 -1 -1 -2 -2 -2 -3 -3 -3 -4 -4 -5 -5 -5 -5 -6 -6 -7 -7 -7 -8 -9 -9 -10 -10 -10 -10 -10 -11 -11 -11 -12 -12 -12 -13 -13 -13 -13 -13
3 3 2 2 2 2 1 1 1 1 0 0 0 -0 -1 -1 -2 -2 -3 -3 -3 -4 -4 -4 -5 -5 -5 -5 -4 -4 -3 -3 -3 -3 -3 -3 -3 -3 -3 -3 -2 -2 -1 -1 -0 -1 -1 -2 -2 -2 -3 -3 -3 -3 -4 -4 -5 -5 -5 -6 -6 -6 -7 -7 -7 -8 -9 -9 -10 -10 -10 -10 -11 -11 -11 -11 -12 -12 -13 -13 -13 -13 -14 -14 -14
2 2 1 1 1 0 0 -0 -1 -1 -1 -1 -1 -1 -1 -2 -2 -3 -3 -3 -4 -4 -4 -5 -5 -5 -5 -5 -5 -4 -4 -4 -3 -3 -3 -4 -3 -3 -3 -3 -3 -2 -2 -2 -2 -2 -2 -3 -3 -3 -3 -3 -4 -4 -4 -5 -6 -6 -6 -7 -7 -7 -7 -8 -8 -9 -9 -9 -10 -10 -10 -11 -11 -11 -11 -12 -12 -13 -13 -13 -14 -14 -14 -15 -14
1 1 0 0 -1 -1 -1 -1 -1 -2 -2 -1 -1 -2 -2 -2 -2 -3 -3 -3 -3 -4 -4 -5 -5 -5 -5 -5 -5 -5 -4 -4 -3 -4 -4 -4 -4 -4 -3 -3 -3 -3 -3 -3 -3 -3 -3 -3 -4 -4 -4 -5 -5 -6 -6 -6 -6 -7 -7 -8 -8 -8 -8 -9 -9 -9 -9 -10 -10 -10 -11 -11 -11 -12 -12 -12 -13 -13 -14 -14 -14 -14 -15 -15 -15
0 -0 -1 -1 -1 -1 -1 -1 -1 -2 -2 -2 -2 -2 -2 -2 -2 -3 -3 -3 -3 -3 -4 -4 -4 -4 -5 -5 -5 -5 -5 -4 -4 -4 -4 -4 -4 -4 -4 -4 -3 -3 -3 -3 -3 -4 -4 -4 -5 -5 -5 -6 -6 -7 -7 -7 -8 -8 -8 -8 -8 -9 -9 -9 -9 -10 -10 -10 -10 -11 -11 -12 -12 -12 -13 -13 -13 -14 -14 -14 -15 -15 -15 -15 -15
-1 -1 -2 -2 -2 -2 -2 -2 -2 -2 -3 -3 -3 -3 -3 -3 -2 -3 -3 -3 -3 -3 -3 -3 -3 -4 -4 -4 -4 -4 -4 -4 -4 -4 -4 -4 -4 -4 -4 -4 -4 -4 -4 -4 -4 -4 -5 -5 -6 -6 -6 -6 -7 -7 -8 -8 -8 -8 -9 -9 -9 -9 -9 -9 -10 -10 -10 -10 -11 -11 -12 -12 -12 -13 -13 -14 -14 -14 -15 -15 -15 -16 -16 -16 -16
-2 -2 -2 -3 -3 -3 -3 -3 -3 -3 -3 -3 -4 -4 -4 -4 -3 -3 -2 -3 -3 -3 -2 -3 -3 -3 -3 -3 -4 -4 -3 -3 -4 -4 -4 -4 -4 -4 -4 -4 -4 -4 -4 -4 -4 -5 -5 -6 -6 -6 -6 -7 -7 -8 -8 -8 -8 -9 -9 -9 -9 -9 -10 -10 -10 -10 -11 -11 -11 -12 -12 -12 -13 -13 -14 -14 -14 -15 -15 -16 -16 -16 -16 -17 -17
-2 -2 -3 -3 -3 -3 -3 -3 -3 -4 -4 -4 -4 -4 -4 -4 -4 -4 -3 -3 -3 -3 -3 -3 -3 -3 -2 -2 -3 -3 -3 -3 -4 -4 -4 -4 -4 -4 -5 -5 -4 -4 -4 -4 -5 -5 -6 -6 -7 -7 -7 -7 -8 -8 -8 -8 -8 -9 -9 -9 -10 -10 -10 -10 -10 -11 -11 -12 -12 -12 -13 -13 -14 -14 -14 -15 -15 -15 -16 -16 -16 -16 -17 -17 -17
-2 -2 -2 -3 -3 -3 -3 -4 -4 -4 -4 -4 -4 -4 -4 -4 -5 -4 -4 -4 -3 -3 -3 -3 -3 -3 -3 -3 -3 -3 -3 -4 -4 -4 -4 -4 -4 -4 -5 -5 -5 -5 -5 -5 -5 -6 -6 -7 -7 -8 -8 -8 -8 -8 -8 -8 -9 -9 -9 -9 -10 -10 -10 -11 -11 -11 -12 -12 -12 -13 -13 -14 -14 -15 -15 -15 -16 -16 -16 -17 -17 -17 -17 -18 -18
-2 -2 -2 -2 -3 -3 -3 -4 -4 -4 -4 -4 -4 -5 -5 -5 -5 -5 -5 -4 -4 -4 -4 -4 -4 -4 -4 -3 -3 -3 -3 -4 -4 -4 -4 -4 -5 -5 -5 -5 -5 -6 -6 -5 -6 -6 -7 -7 -8 -8 -8 -8 -8 -8 -8 -8 -9 -9 -10 -10 -10 -11 -11 -11 -12 -12 -12 -13 -13 -13 -14 -14 -15 -15 -15 -16 -16 -16 -17 -17 -17 -18 -18 -18 -19
-2 -2 -2 -3 -3 -3 -4 -4 -4 -4 -5 -5 -5 -5 -5 -5 -5 -5 -5 -5 -5 -5 -5 -5 -5 -4 -4 -4 -4 -4 -4 -5 -5 -5 -5 -5 -5 -5 -6 -6 -6 -6 -6 -6 -6 -7 -7 -8 -8 -9 -8 -8 -8 -8 -8 -9 -9 -9 -10 -10 -11 -11 -11 -12 -12 -12 -13 -13 -14 -14 -15 -15 -15 -15 -16 -16 -16 -17 -17 -17 -18 -18 -18 -19 -19
-2 -2 -2 -3 -3 -3 -4 -4 -4 -5 -5 -5 -5 -5 -5 -5 -5 -5 -5 -6 -6 -6 -6 -6 -5 -5 -5 -5 -5 -5 -5 -5 -6 -6 -5 -5 -6 -6 -6 -6 -6 -7 -7 -7 -7 -7 -8 -8 -8 -9 -8 -8 -8 -9 -9 -9 -9 -10 -10 -10 -11 -11 -12 -12 -13 -13 -13 -14 -14 -15 -15 -16 -16 -16 -16 -16 -17 -17 -17 -18 -18 -18 -19 -19 -20
-2 -2 -3 -3 -3 -4 -4 -4 -5 -5 -5 -5 -5 -5 -6 -6 -6 -6 -6 -6 -6 -6 -6 -6 -6 -6 -6 -6 -6 -6 -6 -6 -6 -6 -6 -6 -6 -6 -6 -6 -6 -7 -7 -8 -8 -8 -8 -8 -8 -8 -8 -9 -9 -9 -9 -9 -10 -10 -11 -11 -11 -12 -12 -13 -13 -14 -14 -14 -15 -15 -15 -16 -16 -16 -16 -16 -17 -17 -18 -18 -19 -19 -19 -20 -20
-2 -3 -3 -3 -3 -4 -4 -4 -5 -5 -5 -5 -6 -6 -6 -6 -6 -6 -7 -7 -7 -7 -6 -6 -6 -6 -6 -6 -6 -6 -6 -6 -6 -6 -6 -6 -6 -6 -6 -7 -7 -7 -7 -8 -9 -9 -8 -8 -8 -8 -8 -9 -9 -9 -9 -10 -10 -11 -11 -12 -12 -13 -13 -14 -14 -14 -15 -15 -15 -15 -16 -16 -16 -17 -17 -17 -17 -17 -18 -18 -19 -19 -19 -19 -20
-3 -3 -3 -3 -4 -4 -4 -5 -5 -5 -5 -6 -6 -6 -6 -7 -7 -7 -7 -7 -7 -7 -7 -7 -7 -7 -7 -6 -6 -6 -6 -6 -6 -7 -7 -7 -7 -7 -7 -7 -7 -7 -8 -8 -8 -8 -8 -8 -8 -9 -9 -9 -9 -10 -10 -10 -11 -11 -12 -12 -13 -13 -14 -14 -14 -15 -15 -15 -16 -16 -16 -16 -17 -17 -17 -17 -17 -18 -18 -19 -19 -19 -20 -20 -20
-3 -3 -3 -4 -4 -4 -4 -5 -5 -5 -6 -6 -6 -6 -7 -7 -7 -8 -8 -8 -8 -8 -8 -8 -8 -8 -7 -7 -7 -7 -7 -7 -8 -8 -8 -8 -9 -9 -9 -9 -8 -8 -8 -8 -8 -8 -8 -9 -9 -9 -9 -10 -10 -10 -11 -11 -12 -12 -12 -13 -13 -14 -14 -14 -15 -15 -15 -15 -16 -16 -16 -16 -17 -17 -17 -17 -18 -18 -19 -19 -19 -19 -20 -20 -21
-4 -4 -4 -4 -4 -5 -5 -5 -5 -5 -6 -6 -6 -7 -7 -7 -8 -8 -8 -8 -8 -8 -8 -9 -9 -9 -8 -8 -8 -8 -8 -8 -9 -9 -9 -9 -10 -10 -10 -9 -9 -8 -8 -8 -8 -9 -9 -9 -9 -10 -10 -10 -11 -11 -11 -12 -12 -13 -13 -14 -14 -14 -15 -15 -15 -15 -15 -16 -16 -16 -16 -17 -17 -17 -17 -18 -18 -19 -19 -19 -19 -20 -20 -20 -21
-5 -5 -5 -5 -5 -5 -5 -5 -5 -6 -6 -6 -6 -7 -7 -7 -8 -8 -8 -8 -8 -9 -9 -10 -10 -9 -9 -9 -9 -9 -9 -9 -9 -10 -10 -10 -10 -10 -10 -9 -9 -8 -8 -9 -9 -9 -9 -10 -10 -10 -10 -11 -11 -11 -12 -12 -13 -13 -14 -14 -14 -15 -15 -15 -15 -16 -16 -16 -16 -16 -17 -17 -17 -18 -18 -18 -19 -19 -19 -19 -19 -20 -20 -20 -21
-5 -5 -5 -5 -5 -5 -5 -6 -6 -6 -6 -6 -7 -7 -7 -8 -8 -9 -9 -9 -9 -9 -10 -10 -10 -10 -10 -10 -10 -10 -10 -10 -10 -10 -10 -10 -10 -10 -9 -9 -9 -9 -9 -10 -10 -10 -10 -11 -11 -11 -11 -12 -12 -12 -13 -13 -13 -14 -14 -15 -15 -15 -15 -16 -16 -16 -16 -16 -16 -17 -17 -17 -18 -18 -18 -18 -19 -19 -19 -19 -19 -19 -20 -20 -21
-5 -5 -5 -6 -6 -6 -6 -6 -6 -6 -7 -7 -7 -8 -8 -8 -9 -9 -9 -9 -10 -10 -10 -11 -11 -11 -11 -11 -11 -11 -11 -11 -11 -11 -11 -10 -10 -10 -10 -9 -9 -10 -10 -10 -10 -11 -11 -11 -12 -12 -12 -13 -13 -13 -14 -14 -14 -15 -15 -15 -15 -15 -15 -15 -16 -16 -16 -17 -17 -17 -18 -18 -18 -18 -18 -18 -19 -19 -19 -19 -19 -20 -20 -21 -21
-6 -6 -6 -6 -6 -6 -6 -6 -7 -7 -7 -7 -8 -8 -9 -9 -9 -10 -10 -10 -10 -11 -11 -11 -11 -11 -12 -12 -12 -12 -12 -11 -11 -11 -11 -11 -10 -10 -10 -10 -10 -10 -11 -11 -11 -12 -12 -12 -13 -13 -13 -13 -13 -14 -14 -15 -15 -15 -15 -16 -16 -16 -15 -16 -16 -17 -17 -17 -17 -17 -18 -18 -18 -18 -18 -18 -19 -19 -19 -19 -20 -20 -20 -21 -21
-7 -7 -7 -7 -7 -7 -7 -8 -8 -8 -8 -8 -9 -9 -9 -10 -10 -10 -11 -11 -11 -11 -11 -12 -12 -12 -12 -13 -13 -13 -12 -12 -11 -11 -11 -11 -11 -11 -11 -11 -11 -11 -11 -12 -12 -13 -13 -13 -13 -13 -13 -14 -14 -15 -15 -15 -15 -16 -16 -16 -16 -16 -16 -16 -17 -17 -17 -17 -17 -18 -18 -18 -18 -18 -18 -19 -19 -19 -19 -20 -20 -20 -21 -21 -21
-8 -8 -7 -7 -8 -8 -8 -9 -9 -9 -9 -9 -9 -10 -10 -10 -11 -11 -11 -12 -12 -12 -12 -12 -12 -13 -13 -13 -14 -13 -13 -12 -11 -11 -11 -11 -11 -11 -11 -12 -12 -12 -12 -13 -13 -14 -14 -14 -14 -14 -14 -15 -15 -15 -16 -16 -16 -16 -16 -16 -16 -16 -16 -17 -17 -17 -17 -18 -18 -18 -18 -18 -18 -18 -19 -19 -19 -19 -20 -20 -20 -20 -21 -21 -22
-8 -8 -8 -8 -8 -8 -9 -9 -9 -9 -10 -10 -10 -11 -11 -11 -12 -12 -12 -12 -12 -12 -12 -13 -13 -14 -14 -14 -14 -13 -13 -12 -12 -11 -11 -12 -12 -12 -12 -12 -13 -13 -13 -13 -14 -14 -14 -15 -15 -15 -15 -16 -16 -16 -16 -16 -16 -16 -17 -17 -17 -17 -17 -17 -17 -17 -17 -18 -18 -18 -18 -18 -18 -19 -19 -19 -19 -20 -20 -20 -20 -21 -21 -22 -22
-8 -8 -9 -9 -9 -9 -10 -10 -10 -10 -11 -11 -11 -12 -12 -12 -13 -13 -13 -13 -13 -13 -13 -13 -13 -14 -14 -13 -13 -12 -12 -12 -12 -12 -12 -12 -12 -12 -13 -13 -13 -14 -14 -14 -14 -15 -15 -15 -16 -16 -16 -16 -16 -16 -17 -17 -17 -17 -17 -17 -17 -17 -18 -18 -18 -17 -18 -18 -18 -18 -19 -19 -19 -19 -19 -19 -20 -20 -20 -21 -21 -21 -22 -22 -22
-9 -9 -10 -10 -11 -11 -11 -11 -11 -11 -11 -12 -12 -13 -13 -13 -13 -13 -13 -13 -13 -13 -13 -13 -13 -13 -12 -12 -12 -11 -11 -12 -12 -12 -13 -13 -13 -13 -13 -14 -14 -14 -14 -15 -15 -15 -16 -16 -16 -16 -16 -17 -17 -17 -17 -17 -17 -17 -17 -17 -17 -17 -18 -18 -18 -18 -18 -18 -19 -19 -19 -19 -19 -20 -20 -20 -20 -20 -21 -21 -21 -21 -22 -22 -22
-10 -11 -11 -11 -12 -12 -12 -12 -12 -12 -12 -12 -12 -13 -13 -13 -13 -13 -13 -13 -13 -13 -13 -13 -13 -12 -12 -12 -12 -12 -12 -12 -13 -13 -13 -14 -14 -14 -14 -14 -15 -15 -15 -15 -16 -16 -16 -16 -17 -17 -17 -17 -17 -17 -17 -17 -17 -17 -17 -17 -18 -18 -18 -18 -18 -18 -18 -19 -19 -19 -20 -20 -20 -20 -20 -20 -20 -21 -21 -21 -21 -22 -22 -22 -23
Height
774 773 774 774 775 775 776 777 778 779 780 780 781 781 783 785 786 788 790 790 790 791 792 794 795 797 798 799 800 801 802 804 805 806 807 808 809 810 812 813 814 815 817 819 820 821 822 823 825 827 828 831 833 835 837 839 841 842 842 841 842 845 847 848 851 855 859 860 861 861 863 865 866 868 869 870 871 871 871 871 871 870 869 868 868
771 771 772 772 772 772 773 775 776 777 778 778 779 780 781 782 784 785 787 787 788 789 790 792 793 794 796 797 798 799 800 801 802 803 804 805 806 808 809 810 811 812 814 816 817 819 820 821 823 825 827 829 832 833 835 836 839 841 841 839 840 844 846 847 850 853 857 859 860 860 861 863 864 866 867 867 868 869 869 868 868 868 866 866 865
770 770 770 770 770 771 772 773 773 774 775 775 777 778 779 781 782 783 783 784 785 786 787 789 790 791 793 794 795 796 797 798 799 799 801 802 803 805 806 807 808 809 810 812 814 816 818 820 822 824 826 828 830 832 833 835 838 841 841 839 838 842 846 847 849 852 855 857 858 859 860 861 862 864 864 865 866 866 866 865 865 865 863 863 862
769 770 769 769 769 770 769 770 771 771 771 772 773 775 776 778 779 780 781 782 783 784 785 786 787 788 789 790 792 793 794 795 796 797 798 799 801 802 804 805 805 806 808 810 811 813 815 818 820 822 825 827 829 831 832 834 837 840 841 839 839 842 845 847 849 851 852 855 856 857 857 859 860 861 862 863 863 863 863 862 862 861 860 860 860
767 768 769 769 768 768 767 767 767 767 767 768 770 771 773 775 776 777 778 779 780 781 782 783 784 785 786 787 789 790 791 792 792 794 795 796 798 800 801 802 803 805 807 808 809 810 812 815 817 820 823 825 828 830 832 834 836 839 839 839 840 843 846 848 849 849 851 852 854 855 855 857 858 859 860 860 860 860 860 859 859 858 857 856 856
765 766 767 767 766 766 765 764 763 763 764 765 767 768 770 771 773 774 775 776 777 779 779 780 781 782 784 785 786 787 788 789 790 791 792 794 796 797 799 800 801 803 805 806 807 808 811 813 815 818 820 822 825 828 831 834 836 838 838 839 841 843 845 847 848 848 849 850 851 852 854 855 856 857 858 858 858 858 857 856 856 856 854 852 852
761 763 764 764 764 762 761 760 760 760 761 762 764 766 767 768 769 771 772 773 774 776 777 777 778 780 781 782 783 784 785 786 787 789 790 792 793 795 796 798 799 801 803 804 806 807 809 811 813 816 818 820 822 825 829 832 835 836 837 838 840 843 844 845 846 846 847 848 849 850 852 853 855 856 856 857 857 856 855 853 851 851 851 849 848
755 758 760 760 760 758 757 757 757 758 759 760 761 762 764 765 767 768 770 770 771 773 774 775 776 777 778 779 780 781 782 783 784 786 787 789 790 792 793 795 797 799 800 802 804 805 807 810 812 814 817 819 822 824 826 829 832 835 836 837 839 841 842 843 844 845 845 846 847 848 850 852 853 854 855 855 855 855 854 852 849 847 847 846 846
751 752 753 753 752 752 753 754 755 756 756 757 758 759 760 762 764 766 767 768 769 770 771 773 774 774 775 776 777 778 779 780 781 782 784 785 787 789 791 792 794 796 798 800 801 803 805 808 811 814 816 819 822 824 827 829 831 832 834 836 838 839 840 841 842 842 843 844 845 847 849 850 851 852 853 853 853 852 852 851 848 846 845 843 843
748 748 748 747 745 746 749 750 751 752 753 753 754 755 757 759 761 763 764 765 766 768 769 770 771 771 772 773 774 774 775 777 778 779 781 782 784 786 788 790 792 794 795 797 800 802 804 807 810 813 816 819 822 825 828 830 831 832 833 834 836 837 838 839 839 840 841 842 844 846 847 849 850 851 851 851 851 850 849 849 846 845 843 840 838
744 745 744 743 743 744 744 745 747 748 749 750 751 752 754 756 757 759 761 762 764 765 766 767 768 769 770 770 771 771 772 774 775 776 778 780 782 784 786 788 790 792 793 795 797 800 803 806 809 812 815 818 822 825 827 829 830 832 832 833 834 835 835 836 837 838 840 841 843 844 846 847 848 849 849 848 848 848 847 847 846 844 843 840 837
740 739 738 739 740 741 741 742 744 745 746 748 749 750 751 753 754 756 757 759 761 762 764 765 765 766 767 767 768 768 769 771 772 773 775 777 779 781 783 786 787 789 791 793 796 799 802 805 808 811 815 817 820 822 825 827 828 830 831 832 832 833 833 834 835 836 838 840 841 843 844 846 846 846 846 846 846 846 846 845 845 843 842 841 838
737 736 736 736 737 738 739 740 742 743 744 745 747 747 748 749 750 752 754 756 758 760 761 762 763 764 764 765 765 766 767 768 769 771 773 775 777 779 781 783 785 787 789 791 794 797 800 803 806 810 814 816 819 820 822 825 826 828 829 830 831 831 832 833 834 835 837 838 840 842 843 844 844 844 844 844 844 844 844 843 843 842 840 840 838
734 733 733 734 735 736 737 737 738 739 740 742 743 744 744 745 747 749 751 753 755 757 759 760 761 762 762 763 763 764 764 765 767 769 771 773 775 777 779 781 783 785 787 790 792 795 797 800 803 807 812 815 817 819 821 823 824 826 827 828 829 830 830 831 833 834 835 837 838 840 841 841 842 842 842 842 842 842 842 841 841 840 839 838 837
730 730 731 731 732 733 733 733 734 735 737 739 739 740 740 742 744 746 748 750 752 754 756 757 758 760 760 761 762 762 763 764 765 767 769 771 773 776 778 780 782 784 786 788 791 794 796 799 801 804 808 812 815 818 820 821 823 824 826 827 828 829 829 831 832 833 834 835 836 838 839 839 840 840 840 840 841 841 840 840 839 838 836 835 834
728 727 727 728 728 729 730 731 732 733 735 736 737 738 739 740 742 744 746 748 750 752 754 755 756 758 759 760 760 761 761 763 764 765 767 769 772 774 776 778 780 782 784 787 790 793 796 798 801 803 807 811 814 816 818 820 821 823 824 826 826 827 828 830 831 832 833 834 835 836 837 838 838 839 839 839 839 839 838 838 837 836 835 832 830
725 725 725 725 725 726 727 728 729 730 732 733 734 736 737 739 741 743 745 747 748 750 752 754 755 756 757 758 759 759 760 761 763 764 766 768 770 772 774 776 778 780 783 786 789 792 795 798 801 804 807 810 813 815 817 818 820 821 823 824 825 826 827 828 829 831 832 833 834 835 836 836 837 837 838 838 837 837 836 835 835 834 833 831 829
723 723 723 723 724 724 725 726 726 728 729 730 731 733 735 738 740 741 743 745 746 748 750 752 753 755 756 757 758 758 759 760 762 763 765 766 768 770 773 775 777 779 782 785 788 791 795 799 802 804 807 809 812 813 815 817 818 820 821 823 824 825 826 827 828 829 831 832 833 834 834 835 835 835 836 836 835 835 834 833 833 832 832 830 829
721 722 722 722 723 723 724 724 724 725 726 727 729 731 733 736 738 740 742 743 745 747 748 750 751 753 755 756 757 758 759 759 761 762 763 765 767 769 771 773 776 778 781 784 787 791 795 799 802 805 807 809 810 812 814 816 817 818 820 821 822 824 825 826 827 828 829 830 831 832 833 833 833 834 834 833 833 832 832 832 831 831 830 830 828
720 720 720 720 721 721 722 722 723 723 724 726 728 729 731 734 736 738 740 742 744 745 747 748 750 751 753 755 756 757 758 759 760 761 762 764 766 767 769 771 774 777 779 782 786 790 794 798 801 804 806 807 809 811 813 814 816 817 818 819 821 822 823 824 825 827 828 829 830 830 831 831 831 831 831 831 831 830 830 830 830 829 829 828 828
718 718 717 718 718 718 719 720 721 722 723 725 726 728 729 732 734 736 739 741 742 744 745 747 748 750 752 753 755 756 757 758 760 761 762 764 766 767 769 771 772 775 778 781 784 788 792 796 799 802 804 806 808 810 811 813 815 816 817 818 820 821 822 823 824 825 826 827 828 828 829 829 829 829 829 829 829 829 829 829 828 828 828 827 827
716 716 716 716 716 716 717 718 719 720 721 723 724 726 728 730 732 735 737 739 741 742 744 745 747 748 750 752 754 755 757 758 760 761 762 764 765 767 768 770 772 774 777 781 784 787 791 795 798 800 803 805 807 809 810 812 813 814 816 817 818 819 820 821 822 823 824 825 826 826 826 827 827 828 828 828 828 827 827 827 827 826 826 826 826
715 715 714 714 714 714 715 716 717 718 719 721 723 725 727 729 731 733 735 737 739 741 742 744 745 747 749 751 752 754 756 757 759 760 762 763 765 767 768 770 772 774 776 780 783 787 790 794 796 799 801 803 805 807 809 810 811 813 814 815 816 817 818 819 820 821 822 823 823 824 825 825 826 826 826 826 826 825 825 825 824 824 824 824 824
715 714 713 713 713 713 714 714 715 717 718 720 722 724 726 728 730 732 734 736 738 739 741 743 744 745 747 749 751 753 755 756 758 759 761 763 765 767 768 770 772 774 777 780 783 786 789 792 795 797 800 802 804 806 807 809 810 811 812 813 814 815 816 817 818 819 820 820 821 822 823 824 824 824 824 824 823 823 823 822 822 822 822 821 821
713 712 712 712 712 712 712 713 714 716 717 719 721 723 725 727 729 731 733 735 736 738 740 742 743 744 746 748 749 751 753 755 757 759 761 762 764 766 768 770 772 775 777 780 783 786 788 791 793 796 798 801 803 804 806 807 808 809 810 811 812 813 814 815 816 817 818 819 819 820 821 821 821 822 821 822 821 821 820 820 820 819 819 818 818
713 712 711 711 711 712 712 713 714 716 717 719 721 722 724 726 728 730 732 734 735 736 738 740 742 743 745 747 748 750 752 754 756 758 760 762 764 766 768 770 772 775 777 780 783 785 787 790 792 795 797 799 801 802 804 805 806 807 808 809 810 811 812 813 814 814 815 816 817 818 819 819 819 819 819 819 819 818 818 817 817 816 815 815 815
712 712 711 711 711 711 712 713 714 716 718 720 721 723 725 726 728 729 731 732 733 735 736 738 739 741 743 746 748 749 751 753 755 757 759 761 763 765 767 769 772 774 777 779 782 784 786 789 791 794 796 798 799 801 802 803 805 806 807 808 809 810 811 811 812 813 813 814 815 816 816 816 817 817 817 817 817 816 815 814 814 813 813 812 812
711 711 711 711 711 711 711 712 713 715 717 719 721 723 724 726 728 729 730 730 731 733 735 736 737 739 741 743 746 748 750 751 752 754 756 759 761 764 766 768 770 773 775 778 780 783 786 788 790 793 794 796 798 800 801 802 804 805 806 807 808 808 809 810 811 811 812 812 813 813 814 814 815 815 815 815 814 814 813 812 811 811 810 810 809
711 711 711 711 711 711 711 711 712 713 715 717 719 721 722 724 726 727 729 730 730 731 732 733 735 736 738 740 741 744 746 748 751 753 755 758 760 762 764 767 769 772 774 776 779 782 784 787 789 791 793 795 796 798 800 801 803 804 805 806 807 808 808 809 809 809 810 810 811 811 812 813 813 813 813 813 812 812 811 810 810 809 808 808 807
711 711 710 711 711 711 711 712 712 712 713 715 717 719 721 723 724 726 728 730 731 732 732 733 734 735 737 739 740 741 743 746 750 753 755 758 760 762 764 767 769 772 774 776 778 781 783 786 788 790 792 793 795 796 798 799 801 802 803 804 805 806 807 807 808 808 808 809 809 810 810 811 811 811 811 811 811 810 809 809 808 808 807 806 806
710 710 711 711 711 711 711 711 711 712 713 714 715 717 720 723 725 726 727 729 731 733 733 733 734 735 737 739 741 743 745 747 750 753 755 758 761 763 766 768 770 772 774 776 778 780 782 785 787 789 790 792 793 795 796 798 799 800 801 803 804 804 805 806 806 806 807 807 808 808 809 809 810 810 810 809 809 809 809 808 807 807 806 806 805
708 709 710 711 711 711 712 711 711 712 712 713 714 715 718 721 724 726 727 728 730 731 732 733 735 736 737 739 741 743 746 748 751 753 756 759 762 764 766 768 770 772 773 775 777 780 781 783 785 787 789 791 792 794 795 796 797 798 799 800 801 802 803 804 804 805 805 806 807 807 807 808 808 808 808 808 808 807 807 807 806 806 805 805 804
706 706 708 709 711 712 712 711 711 712 712 713 714 714 716 719 722 724 726 728 730 731 732 733 735 736 738 739 741 743 745 748 750 753 756 759 761 764 766 768 770 771 773 774 776 778 780 782 784 786 788 789 790 792 793 794 795 796 797 798 799 800 801 801 802 803 804 804 805 805 806 806 807 807 807 806 806 806 806 805 805 805 804 804 803
706 706 706 707 709 711 712 711 711 712 712 713 713 715 717 720 721 722 724 726 728 731 732 734 735 736 737 739 741 743 745 747 750 752 755 758 761 763 765 768 770 771 772 773 775 777 779 781 783 785 786 788 789 790 791 792 793 794 795 796 796 797 798 799 800 801 802 802 803 804 804 804 805 805 805 805 805 805 804 804 804 803 803 803 802
707 707 706 707 708 710 712 713 713 713 713 714 714 715 718 721 723 724 724 725 727 729 731 733 735 736 737 739 741 743 744 747 750 752 755 757 760 762 765 767 769 770 771 773 774 776 777 779 781 783 784 786 787 788 789 790 791 791 792 793 794 795 796 798 799 799 800 801 801 802 802 802 802 803 803 803 803 803 803 803 803 802 802 802 801
705 706 706 706 707 709 711 713 714 714 715 715 715 716 718 721 723 725 725 727 728 729 730 732 735 737 739 740 742 743 745 748 750 752 755 757 760 761 763 764 766 768 769 771 773 775 776 778 779 781 783 784 785 786 787 788 789 790 791 792 793 794 795 796 797 798 798 799 799 800 800 800 800 800 801 801 801 801 801 801 801 801 800 800 800
702 703 704 704 705 707 709 711 713 715 716 716 716 716 718 720 722 724 726 727 728 729 730 732 734 737 740 742 743 745 747 750 752 754 756 758 760 761 761 762 763 765 767 769 771 773 774 776 778 780 781 783 784 785 786 787 788 789 790 791 792 793 794 795 795 796 797 797 797 798 798 798 798 798 798 798 798 799 799 799 799 799 799 799 798
700 700 701 702 703 704 706 709 711 713 715 717 717 717 717 719 721 723 725 726 727 728 729 731 733 735 738 741 743 746 748 751 753 755 756 757 758 760 761 762 763 764 765 767 769 771 772 774 777 779 780 781 782 783 785 786 787 788 789 790 791 792 793 793 794 794 795 795 795 795 795 795 795 795 795 796 796 796 796 796 797 797 797 797 797
697 698 699 701 702 702 704 706 708 710 713 716 717 717 717 718 721 723 725 726 727 728 729 730 732 734 736 739 742 744 747 749 751 752 753 755 757 758 760 761 762 763 764 766 768 770 772 774 776 777 779 780 781 782 783 785 786 787 788 789 790 791 791 792 792 792 793 793 793 793 792 792 792 793 793 793 793 794 794 794 795 795 795 795 795
693 695 697 699 701 702 703 705 706 708 711 715 715 715 716 718 720 722 724 725 727 728 729 730 732 734 736 738 740 742 744 746 748 750 751 753 755 757 758 760 761 762 764 765 767 769 771 773 775 776 778 779 780 781 782 783 785 786 787 788 789 789 790 790 790 790 790 790 790 790 790 790 790 790 791 791 791 792 792 792 793 793 793 793 794
691 692 693 696 698 700 702 703 704 706 710 712 713 713 715 718 720 722 723 724 725 727 729 730 732 734 736 738 741 743 745 746 748 749 751 753 754 756 758 760 761 762 763 765 767 769 771 772 774 775 776 777 778 779 781 782 783 784 785 786 787 787 787 788 788 788 788 788 788 788 788 788 788 788 789 789 789 790 790 790 791 791 792 792 792
690 691 692 694 695 697 699 701 703 705 709 711 711 712 715 717 720 722 723 724 725 726 728 730 732 734 736 738 741 744 746 748 749 750 752 753 755 756 758 759 760 762 763 765 767 768 770 771 773 774 775 776 776 777 779 780 781 782 783 784 785 785 785 785 785 785 785 785 785 786 786 786 786 787 787 787 787 788 788 788 788 789 789 790 790
688 690 692 693 694 696 697 699 701 705 708 710 710 712 714 717 719 721 722 724 725 726 728 730 733 735 737 739 741 743 746 748 750 751 752 753 754 756 757 758 759 761 763 764 766 768 769 770 771 772 773 774 775 776 777 778 779 780 781 782 782 783 783 783 783 783 783 783 783 783 784 784 785 785 785 785 785 785 785 785 786 786 786 787 787
683 686 689 691 693 695 697 699 701 704 707 709 710 712 714 716 718 720 722 723 725 727 729 731 733 735 737 739 741 743 745 747 749 751 752 753 754 755 756 757 759 761 762 764 765 767 768 769 770 771 771 772 773 774 775 776 777 778 779 780 780 780 780 780 780 780 780 780 781 781 782 782 782 782 782 782 782 782 782 782 783 783 784 784 784
681 682 685 687 689 692 696 699 702 703 706 708 710 712 714 716 718 720 722 723 725 727 729 731 733 735 736 738 740 742 744 746 748 750 751 752 753 754 755 757 758 760 761 763 765 766 767 768 768 769 770 771 771 773 774 775 775 776 777 777 778 778 778 778 778 778 778 778 778 779 779 779 779 779 779 779 779 779 779 780 780 780 781 781 781
681 681 682 683 685 689 693 697 701 703 704 707 708 710 713 715 717 719 722 723 725 727 729 731 733 734 736 738 740 742 743 745 746 748 750 751 752 753 755 756 757 759 760 762 763 764 765 766 767 767 768 769 770 771 772 773 773 774 775 775 775 775 775 775 775 775 775 775 776 776 777 777 777 777 776 777 776 776 776 777 777 777 778 778 778
681 681 681 682 684 688 692 696 700 702 704 706 708 710 712 714 716 718 721 723 724 726 728 730 732 734 736 738 740 741 743 744 745 747 748 750 751 753 754 755 757 758 759 761 762 763 763 764 765 766 767 767 768 769 770 771 771 772 772 772 773 772 772 772 772 772 773 773 773 774 774 774 774 774 774 774 774 773 773 774 774 774 775 775 776
682 681 681 683 685 688 691 695 698 701 703 706 708 710 712 714 716 718 720 721 723 725 727 729 731 733 735 737 739 740 742 743 744 746 747 749 750 752 753 754 756 757 758 759 760 761 762 763 763 764 765 766 766 767 768 769 769 769 769 770 770 770 769 769 769 769 770 770 770 770 771 771 771 771 771 771 771 771 771 771 771 772 772 772 773
681 680 682 685 687 689 691 694 696 699 702 705 708 710 713 715 716 718 719 720 722 724 726 728 730 733 735 736 738 739 740 742 743 745 747 748 750 751 752 754 755 756 757 758 759 760 760 761 762 762 763 764 764 765 766 766 766 767 767 767 767 767 767 766 766 766 767 767 767 767 768 767 768 768 768 768 768 768 768 768 769 769 769 770 770
679 680 683 685 688 690 692 694 696 699 702 705 707 710 713 715 716 718 719 720 722 724 726 728 730 732 734 735 736 737 739 741 742 744 746 747 749 750 751 753 754 755 756 757 757 758 759 760 760 760 761 762 762 763 763 763 763 764 764 764 764 764 763 763 763 764 764 764 764 764 764 764 765 765 765 765 765 765 765 766 766 766 766 767 767
679 681 684 686 688 691 693 695 697 699 702 704 707 710 712 714 716 718 719 721 723 725 727 729 731 733 734 735 736 737 738 740 741 743 744 746 747 749 750 751 752 753 754 755 756 756 757 757 758 758 759 759 760 760 760 760 761 761 761 760 760 760 760 760 760 761 761 761 761 761 761 761 761 762 762 762 762 762 762 763 763 763 764 764 764
Wind_Speed
30 32 32 32 31 31 30 29 28 28 28 29 30 30 30 30 30 29 28 27 27 27 27 28 29 29 28 28 28 30 32 33 32 32 32 31 31 32 33 33 32 31 30 30 30 31 32 33 32 31 30 30 29 27 26 24 24 26 25 23 21 18 19 19 16 12 11 9 8 8 7 5 5 6 8 9 11 13 15 17 18 20 22 23 22
31 32 32 32 33 32 30 29 28 28 28 29 30 30 30 29 29 29 29 29 28 27 27 28 28 28 27 27 28 29 30 30 29 29 30 30 30 30 30 30 30 29 28 29 29 29 29 31 31 30 30 29 28 27 26 25 25 25 24 23 23 21 19 21 20 15 12 10 10 9 7 6 7 9 10 12 13 14 16 18 19 21 22 22 23
30 31 32 32 32 31 30 29 28 28 29 30 31 30 29 28 28 28 28 29 29 29 28 28 29 28 27 27 28 28 28 27 27 28 28 29 29 29 29 29 29 28 29 30 30 30 29 30 30 30 30 29 28 27 26 26 26 25 24 24 24 22 19 19 18 15 14 12 10 9 9 9 10 11 13 14 14 15 17 19 20 21 22 23 24
29 30 31 32 31 30 30 29 29 29 30 31 31 29 28 28 28 28 27 28 29 29 29 29 29 28 28 27 26 26 26 26 26 26 27 29 29 30 29 29 28 28 30 31 31 31 31 31 31 30 30 29 28 28 28 27 27 26 24 22 22 20 17 16 14 13 15 14 10 9 9 10 11 11 12 13 14 16 18 19 20 21 23 24 25
28 29 30 31 30 31 31 30 30 31 31 31 30 29 28 28 28 27 26 27 28 28 28 28 28 28 28 26 25 25 25 24 24 25 26 27 29 30 30 29 28 28 29 30 31 31 32 32 32 31 30 30 29 29 29 28 27 26 24 22 20 18 15 13 11 10 12 12 9 8 8 8 9 9 10 12 14 15 17 18 20 22 24 25 25
27 28 29 30 31 32 32 32 33 33 32 32 31 29 28 28 28 27 26 26 27 28 28 28 27 27 27 25 24 24 23 22 23 24 25 26 27 28 28 28 28 28 29 30 29 30 32 32 32 32 33 33 33 32 31 30 28 27 25 22 18 16 14 12 10 9 8 8 7 6 5 5 7 8 7 9 12 15 18 20 21 21 23 26 28
27 28 29 30 32 34 35 35 35 34 33 32 31 29 29 28 28 27 26 26 27 28 28 28 27 27 26 25 24 23 22 21 22 23 23 24 25 26 27 27 27 28 29 28 28 29 31 32 32 34 35 35 36 35 34 32 29 26 23 20 18 16 14 12 10 8 7 6 5 5 4 4 6 7 7 9 11 14 17 20 23 23 24 28 30
29 30 30 31 34 37 38 37 35 34 33 32 31 30 29 29 28 27 26 27 27 28 28 28 27 26 26 25 24 23 22 21 21 22 23 23 25 26 26 26 27 27 27 27 28 29 31 32 32 34 35 35 36 37 36 34 30 25 21 19 18 16 14 12 10 8 7 6 4 4 4 4 5 7 8 9 11 13 14 17 23 25 26 29 28
31 32 33 34 36 39 39 37 35 34 33 32 31 30 29 29 28 27 27 27 27 28 28 28 27 26 26 25 24 23 22 22 21 22 23 23 25 26 26 26 26 27 27 27 28 30 30 31 32 34 35 35 36 36 34 31 27 24 22 19 17 15 13 12 10 9 7 6 5 5 4 4 5 7 9 10 11 14 16 17 22 25 27 30 27
32 33 35 37 38 38 37 36 35 34 33 33 32 30 29 28 28 27 27 27 27 28 28 28 28 27 27 25 24 23 22 22 22 22 23 24 25 26 25 25 26 27 28 28 28 29 30 31 33 34 36 36 36 33 28 25 21 18 18 17 15 13 13 11 10 9 8 7 6 5 4 4 6 7 9 11 13 14 16 17 20 24 25 28 27
33 34 36 38 38 36 36 36 35 34 33 32 31 30 28 28 28 27 27 26 27 27 28 28 28 27 26 25 24 24 23 23 22 23 23 23 24 25 25 25 26 27 28 28 29 29 30 31 34 35 36 36 33 29 25 22 18 15 14 13 11 9 9 9 9 8 7 6 6 5 4 5 7 8 9 12 13 13 15 17 19 22 21 21 22
34 36 38 38 37 36 35 34 33 32 32 32 31 29 28 28 28 28 28 27 27 27 28 28 27 26 26 25 24 24 24 23 23 23 23 22 22 24 25 26 27 27 28 29 30 30 31 33 35 36 36 34 31 29 25 22 18 15 13 12 10 7 6 5 5 6 6 6 5 4 5 6 8 9 10 11 12 14 16 17 17 19 19 17 19
33 36 37 36 35 34 32 31 30 31 31 31 30 28 28 29 29 29 28 27 27 28 28 27 27 26 25 24 24 23 23 23 22 22 22 22 22 24 25 27 27 28 29 30 31 32 34 36 37 36 35 33 31 29 25 21 18 15 14 12 10 7 5 3 3 4 4 4 4 4 5 6 8 9 10 10 13 15 16 16 16 17 17 17 19
31 34 35 34 33 31 30 30 30 31 30 30 29 29 29 30 30 29 28 28 28 28 28 27 26 25 24 23 22 22 22 21 21 21 22 23 24 25 26 26 27 28 29 31 32 34 37 40 40 38 36 34 31 27 23 20 18 16 14 11 9 6 5 4 3 3 3 3 4 5 5 6 7 8 9 9 12 14 14 16 16 17 19 20 22
30 31 32 32 31 30 30 30 30 30 29 29 29 29 30 30 29 29 28 28 28 28 27 27 26 24 23 22 22 21 21 20 19 21 23 24 25 26 26 26 28 29 30 31 33 36 40 43 42 41 38 34 29 23 20 19 17 14 12 10 8 6 4 4 3 3 2 3 3 4 4 5 5 7 8 10 11 12 14 15 16 19 22 23 24
28 30 31 31 31 31 30 29 29 28 27 28 28 28 28 28 28 27 27 27 27 27 27 26 25 24 23 22 22 21 20 19 19 20 22 24 25 26 26 27 29 30 31 32 34 37 41 42 42 41 37 32 26 21 18 16 14 12 10 8 7 5 4 3 2 2 2 2 2 3 3 4 5 6 7 9 10 12 14 15 16 19 21 21 21
27 29 30 30 30 30 29 28 28 27 27 27 28 28 27 27 27 27 26 26 26 26 25 24 24 23 23 22 22 21 20 19 20 21 22 23 25 27 28 29 30 30 31 32 35 38 39 40 41 38 33 28 24 20 17 14 12 10 9 7 6 5 3 2 2 1 1 2 2 2 3 4 5 5 6 7 9 11 12 14 15 16 16 16 16
26 26 27 28 27 27 27 27 27 27 27 27 28 27 27 27 27 27 27 26 26 25 25 23 22 22 22 22 22 22 22 21 21 22 23 24 26 28 29 29 30 30 31 33 36 38 38 38 37 33 29 25 21 18 15 12 10 9 8 7 6 4 3 2 1 2 2 3 2 2 2 3 3 4 5 6 7 8 8 10 11 11 11 12 14
25 25 25 25 24 24 25 25 26 26 26 27 27 27 26 27 27 26 26 26 25 25 24 23 21 20 20 20 20 20 21 21 21 22 24 25 27 28 29 30 30 30 32 33 34 35 37 37 33 28 24 22 18 15 13 11 9 7 7 6 5 4 3 3 2 2 2 2 2 2 2 3 3 4 4 3 3 3 3 5 8 10 10 12 13
22 22 21 20 20 21 22 24 25 25 25 25 25 26 26 26 26 25 25 24 24 23 22 21 20 19 18 18 18 18 19 20 20 22 24 25 27 28 30 31 31 31 32 33 33 33 35 35 31 24 21 18 15 13 11 9 8 7 6 6 5 5 5 4 3 3 2 1 0 2 1 2 2 2 1 1 1 3 5 7 8 9 9 11 13
19 18 18 18 18 20 21 22 23 24 24 24 24 25 25 26 26 26 25 23 22 22 21 20 19 19 18 18 18 18 18 19 21 22 23 25 26 28 29 31 32 32 32 33 34 35 34 32 28 23 18 16 13 12 10 9 8 7 6 4 4 5 5 5 5 4 2 2 1 1 3 4 4 3 2 1 4 7 8 9 8 8 8 9 11
16 15 16 16 17 18 19 21 22 22 23 24 24 24 24 25 26 26 25 24 23 22 21 20 19 19 18 18 18 17 17 18 20 22 23 24 25 27 28 30 31 32 32 32 34 35 33 30 26 22 18 15 14 12 10 9 8 6 5 5 6 6 6 6 5 5 4 4 4 5 5 4 3 1 2 5 7 9 10 9 8 8 8 7 8
14 14 15 15 16 18 19 20 21 22 23 24 24 25 25 25 25 26 25 24 23 22 21 21 20 19 18 18 18 17 17 18 20 21 21 22 24 25 26 28 29 31 33 34 34 35 32 28 25 21 18 16 14 12 10 9 8 6 7 8 10 9 8 7 7 6 6 6 5 5 4 4 3 0 3 5 7 10 11 9 7 7 8 8 8
14 15 15 16 17 18 18 19 20 21 22 23 24 25 25 25 25 25 25 25 24 23 21 22 21 20 20 19 19 19 19 20 21 20 20 21 23 24 24 26 27 30 33 35 35 35 31 27 24 21 18 15 13 12 11 10 10 10 11 12 12 11 10 9 8 7 6 5 5 5 6 5 2 1 4 6 9 10 9 7 6 7 8 9 10
15 16 16 17 17 18 18 19 20 21 23 24 25 26 26 25 25 25 25 25 24 22 21 22 22 21 20 20 20 21 21 22 22 20 19 21 23 23 24 25 27 30 33 35 34 32 28 25 22 20 17 16 14 14 13 13 13 13 13 13 12 11 10 9 7 6 6 6 7 8 8 5 2 3 5 8 9 9 8 7 7 8 9 9 9
16 16 17 17 17 18 19 19 19 21 22 24 25 26 26 26 25 25 24 24 23 23 23 22 21 21 21 21 22 22 22 23 23 22 21 21 22 22 24 26 28 31 33 33 31 28 25 23 22 20 18 17 15 15 15 15 15 14 13 12 12 10 9 8 7 7 8 9 9 8 6 4 3 5 7 9 9 8 8 9 9 9 9 10 10
17 17 17 17 18 19 20 20 20 21 22 23 23 24 25 25 25 25 25 24 23 22 23 22 22 22 21 21 22 23 23 24 25 24 24 23 22 22 24 26 27 29 30 29 28 26 24 23 21 19 18 16 14 14 15 15 15 14 13 12 11 9 8 7 8 8 8 8 7 6 4 4 6 7 8 7 7 7 8 9 9 10 10 11 11
18 18 18 19 20 20 21 22 22 22 22 22 23 23 23 24 24 25 26 27 26 24 23 23 23 24 24 24 24 23 23 26 28 29 28 27 27 27 27 28 28 29 30 30 28 26 24 22 20 19 17 17 16 16 16 15 15 15 14 12 10 9 9 9 8 7 7 6 5 4 4 5 6 6 6 5 6 7 7 8 9 10 10 11 13
18 19 19 20 21 21 23 24 25 25 24 23 23 23 24 25 25 24 24 26 27 27 27 27 26 27 28 29 29 27 26 28 30 30 30 29 29 29 29 30 30 31 31 30 28 26 24 22 21 20 19 19 20 19 18 17 16 15 14 12 11 11 11 10 8 7 6 5 4 5 5 5 5 4 4 4 5 6 7 8 8 9 10 12 13
19 20 20 21 22 22 23 24 24 25 25 23 22 20 20 22 24 23 22 23 23 24 25 26 27 28 29 31 31 31 31 32 32 30 29 28 28 28 28 28 28 28 27 26 25 24 24 23 22 22 22 23 23 23 21 19 18 17 15 14 13 13 12 10 8 6 5 5 5 5 5 4 4 4 4 4 4 5 6 7 8 9 10 12 13
20 20 20 20 22 23 23 23 23 24 23 24 23 21 18 17 18 19 20 21 20 21 21 21 24 26 26 28 28 27 28 31 31 30 29 28 27 27 26 25 25 25 25 24 23 24 24 24 24 24 24 25 25 24 22 20 20 19 17 16 14 13 11 9 8 6 5 5 5 5 5 4 3 3 4 4 4 4 5 6 7 8 9 10 12
22 21 20 20 21 22 22 23 23 24 24 24 24 24 22 19 15 14 15 16 16 17 17 17 19 20 21 23 25 24 25 29 30 29 29 27 25 25 24 23 23 23 23 23 24 25 25 26 26 26 25 25 24 23 21 21 20 19 18 16 15 13 11 9 8 7 6 6 5 5 4 3 3 3 3 4 4 4 5 6 7 8 9 10 11
23 22 22 22 22 22 22 22 23 24 24 24 24 24 23 21 19 17 15 14 13 14 15 15 16 16 17 19 21 22 24 27 28 27 26 25 24 23 22 22 22 23 24 25 25 25 26 26 25 26 26 25 23 22 22 21 19 18 17 16 14 12 11 9 8 7 7 6 5 5 4 3 3 3 3 4 4 4 5 6 7 8 9 10 11
23 23 24 24 23 22 22 23 23 24 24 24 24 23 22 21 21 21 20 18 16 16 16 16 15 15 16 18 19 21 24 26 25 24 24 24 23 22 21 21 20 20 23 26 26 26 26 25 24 24 25 23 22 23 22 21 19 18 17 16 13 12 11 10 9 8 7 6 6 5 5 4 3 3 3 3 4 5 5 6 7 8 9 10 11
21 21 22 23 22 21 21 21 22 22 22 22 23 22 21 21 20 20 20 19 19 19 18 18 17 17 18 19 20 21 23 24 23 23 24 25 24 23 23 23 22 21 22 24 24 25 26 25 24 24 24 23 23 23 22 20 19 18 17 15 14 13 12 10 9 8 7 7 6 6 5 5 4 4 4 4 5 5 6 6 7 8 9 10 11
21 20 21 22 22 21 20 20 20 20 21 22 22 23 22 21 20 19 19 19 19 20 20 20 18 17 18 19 19 20 22 22 22 23 24 24 25 26 27 26 25 24 24 23 23 23 23 23 23 23 24 23 22 21 20 18 17 16 15 14 13 13 12 11 10 9 8 8 7 7 6 5 5 4 4 5 5 6 7 7 8 9 10 10 11
22 22 23 23 22 21 21 20 20 20 21 21 22 23 23 22 21 21 21 21 21 21 22 23 22 20 20 20 20 21 21 21 21 22 22 22 24 27 28 28 27 26 25 24 23 22 21 21 21 22 23 22 20 19 18 16 15 14 14 14 13 12 11 11 10 9 9 8 8 8 7 6 6 5 5 6 6 7 7 8 8 10 10 11 12
24 24 24 25 24 24 24 23 23 22 22 22 23 24 23 22 22 22 22 22 22 23 24 24 24 24 24 23 22 22 22 22 22 22 22 23 25 26 26 26 26 26 24 23 23 22 22 21 21 21 21 19 18 17 16 15 14 14 14 14 13 12 12 12 11 10 10 9 9 9 8 7 7 6 7 7 7 8 8 9 9 11 12 12 12
25 25 25 26 26 26 26 25 25 25 24 23 23 24 24 23 23 23 22 22 23 24 24 24 24 25 26 27 27 27 27 26 26 26 25 24 24 24 24 24 23 23 22 22 21 20 20 20 20 20 18 17 16 15 14 14 14 14 14 13 13 13 13 13 12 11 11 10 10 9 9 8 8 8 8 8 8 8 9 10 10 11 12 14 14
25 25 25 25 25 25 26 26 26 26 25 25 24 24 24 24 24 24 24 23 23 23 23 23 24 26 27 29 30 30 30 29 29 28 26 24 23 22 21 21 21 20 20 19 19 19 18 18 18 17 16 15 14 13 13 13 13 13 14 14 14 14 13 12 12 12 11 11 10 10 10 9 9 9 9 9 9 9 10 11 12 12 13 14 15
25 25 26 26 26 26 26 26 26 26 26 26 25 25 25 24 24 25 25 24 24 23 22 23 24 26 27 27 28 28 28 28 28 26 24 23 21 20 19 18 17 15 14 14 15 16 16 16 15 15 14 13 13 13 13 13 13 14 14 14 13 13 13 13 13 12 11 11 11 10 10 10 10 10 10 9 9 10 11 12 12 13 13 14 15
23 24 25 26 27 27 27 27 26 26 26 26 26 25 26 25 25 25 25 24 24 24 23 23 24 24 24 24 24 23 22 23 23 22 20 19 18 17 16 15 13 11 11 11 11 12 13 12 12 12 12 12 12 12 12 13 13 13 14 14 14 14 13 13 13 12 12 12 11 10 10 10 11 11 10 10 10 10 11 12 12 13 13 14 14
24 25 25 26 26 27 27 26 25 25 25 25 25 25 25 25 25 24 24 23 24 24 23 24 24 23 20 19 20 20 19 18 18 18 17 16 16 15 14 13 12 11 10 10 10 10 10 10 10 10 10 11 11 11 11 11 12 13 13 14 14 13 13 13 12 12 12 11 11 11 11 11 11 12 11 11 11 11 11 12 13 13 14 14 14
28 28 28 27 26 24 23 24 25 25 24 24 23 23 24 25 24 24 24 24 24 24 24 24 24 23 20 18 17 17 17 16 16 16 15 14 13 13 12 11 10 10 10 10 10 10 10 10 10 10 11 11 11 11 11 12 13 13 13 14 14 14 13 13 12 11 11 11 11 12 12 12 12 13 12 12 12 12 12 13 13 13 14 14 14
28 29 29 28 27 25 24 24 25 25 24 23 22 22 22 23 23 23 23 23 23 23 23 24 24 23 21 19 17 17 16 15 14 14 13 12 11 11 10 9 9 9 9 9 10 10 10 10 10 10 10 10 11 11 12 13 13 13 14 14 14 14 13 12 11 11 12 13 13 13 13 13 14 14 14 13 13 13 13 13 13 14 14 14 14
28 29 29 28 27 26 24 24 24 24 24 23 23 22 22 22 22 22 22 22 23 23 23 23 24 23 21 19 18 16 15 14 14 13 12 12 11 10 9 9 9 9 9 10 10 10 10 10 10 10 10 11 11 12 13 13 14 14 14 14 14 14 13 12 13 13 13 14 14 14 14 15 15 16 15 15 14 15 15 15 14 15 15 14 14
26 27 27 27 26 25 24 23 23 22 22 22 22 22 22 22 22 22 22 22 23 23 23 24 23 23 21 20 18 16 14 13 12 12 12 11 10 10 9 9 9 9 10 10 10 9 9 9 10 10 11 12 12 13 14 14 14 15 15 15 15 14 14 14 14 15 15 15 15 16 16 17 17 17 16 16 16 16 16 16 16 16 15 15 14
24 25 25 26 26 26 25 25 24 23 22 21 21 21 21 21 22 22 22 22 23 23 24 24 23 22 22 20 17 14 13 12 12 11 11 10 9 9 9 9 9 9 10 10 10 10 10 10 11 11 12 13 13 14 14 15 15 16 16 16 15 15 15 15 16 16 16 17 17 17 18 18 18 18 18 17 17 17 17 17 16 16 16 15 15
24 25 25 25 25 25 26 26 25 24 23 23 22 21 21 21 22 22 22 23 22 23 23 23 23 22 20 18 15 13 13 12 12 10 9 9 8 8 9 9 9 10 10 10 10 10 10 11 12 12 13 14 14 15 15 16 16 16 16 16 15 15 16 16 17 17 18 19 19 19 19 20 19 19 19 18 18 18 18 18 17 17 16 16 16
25 25 25 25 24 24 24 24 24 24 23 23 23 22 22 22 21 21 22 22 22 22 22 22 21 19 17 15 14 13 12 11 10 9 8 8 8 8 9 9 9 10 10 9 10 10 11 12 12 13 13 14 14 15 15 16 16 16 16 16 16 16 17 17 18 18 19 19 19 19 20 20 20 19 19 19 19 19 19 18 18 17 17 17 16
25 25 25 24 24 24 24 24 24 24 24 24 23 23 23 22 21 21 21 21 21 21 20 19 17 16 14 13 12 11 10 10 9 9 8 8 8 8 8 9 9 9 10 10 10 11 12 12 13 13 14 14 14 15 15 16 16 16 16 16 16 16 17 17 18 18 18 19 19 19 20 20 20 20 20 20 19 19 19 19 18 18 18 17 16
Wind_Direction
226 228 229 229 231 233 233 234 234 235 236 235 235 235 236 235 235 237 238 238 237 235 237 240 242 241 240 240 240 238 234 230 228 227 226 227 228 228 227 227 226 226 227 226 224 224 223 220 216 210 204 200 196 195 196 198 200 198 194 189 182 184 183 161 136 133 152 158 158 165 183 206 228 253 264 270 275 283 290 292 293 293 293 294 295
228 228 229 230 231 233 234 234 235 236 236 237 237 237 237 236 234 235 237 239 238 236 236 239 240 239 239 240 242 239 236 233 231 230 229 229 228 228 227 226 224 223 222 222 220 219 216 212 207 201 198 197 196 196 195 193 192 188 181 176 168 169 174 161 144 139 148 158 167 172 181 206 229 245 254 263 272 281 287 290 292 294 296 297 299
232 231 231 232 233 233 235 235 235 236 236 237 237 238 239 238 236 235 236 238 238 237 237 238 239 238 238 239 240 239 237 235 234 233 233 231 228 228 227 226 224 222 220 219 216 213 209 206 202 197 195 195 194 193 189 185 183 179 173 170 164 161 169 170 159 152 154 160 175 185 193 218 237 248 259 270 281 287 290 293 296 297 298 301 303
236 235 234 234 235 234 235 235 235 235 236 236 237 238 239 238 236 236 237 237 237 236 235 235 236 236 235 235 237 237 237 236 235 236 234 232 230 228 227 225 224 224 222 218 214 210 207 203 200 197 194 192 189 186 182 177 177 175 168 164 163 159 164 171 170 167 166 168 182 199 212 235 252 263 274 282 288 291 292 295 298 299 302 304 305
238 238 238 237 236 236 236 235 235 235 235 236 236 237 238 237 236 236 235 235 235 234 233 231 230 231 232 233 235 236 237 237 237 237 235 232 230 228 227 225 223 223 222 218 215 211 208 204 201 197 193 189 184 180 176 173 173 172 165 161 161 161 162 166 168 167 168 172 186 209 233 256 269 280 287 291 295 298 299 300 300 302 305 307 308
239 239 239 239 238 238 236 235 235 235 236 236 236 236 236 236 235 234 234 234 233 232 232 231 230 230 231 233 235 236 236 237 238 238 235 231 228 227 226 225 223 222 220 219 216 212 209 206 203 198 195 190 183 177 174 173 173 170 165 160 160 161 161 163 163 160 164 175 191 216 246 267 283 298 307 307 306 305 305 305 304 305 309 311 312
238 239 239 239 240 240 239 238 237 237 237 237 236 235 236 236 235 234 233 233 233 232 231 230 230 231 232 232 233 234 234 235 236 235 232 230 227 225 223 222 221 220 219 217 214 211 209 206 203 199 195 191 183 177 174 174 173 169 164 158 156 159 160 161 163 163 166 174 191 221 248 271 291 307 321 319 310 305 305 306 307 311 313 314 314
233 234 235 237 241 243 242 241 240 239 239 238 236 235 235 236 236 235 233 232 232 233 232 231 230 231 231 231 231 230 231 231 232 230 228 228 226 223 221 219 217 215 215 214 211 208 206 205 203 199 194 189 184 180 177 175 170 163 159 155 155 159 160 160 163 164 168 176 194 223 247 270 294 312 321 316 306 306 312 309 307 311 314 313 313
231 230 229 233 240 244 243 242 241 240 239 237 235 233 233 234 236 235 233 232 232 233 233 233 232 230 228 228 227 227 228 229 230 230 229 226 222 220 219 216 214 212 209 207 206 204 203 202 200 196 191 187 185 182 178 175 167 158 155 157 159 161 161 162 164 165 173 186 201 221 242 270 301 313 310 306 304 309 317 314 308 311 315 313 314
232 230 228 234 240 241 240 241 240 238 237 236 234 231 230 231 233 233 232 231 231 231 230 230 229 228 226 224 224 225 227 230 232 232 230 225 220 217 216 214 212 210 205 201 199 199 199 199 196 192 189 186 183 179 174 169 164 156 154 156 158 159 160 162 166 171 180 192 208 222 233 264 296 301 296 304 312 315 319 319 313 315 318 317 318
232 231 233 239 241 238 237 238 237 235 235 234 232 229 228 228 230 230 229 229 229 228 227 226 226 225 225 224 225 226 227 230 231 228 225 221 217 214 212 209 208 206 203 198 194 193 193 192 190 188 184 180 176 172 165 160 157 153 151 153 153 152 153 159 168 180 190 198 212 229 242 264 285 294 300 311 319 319 320 320 316 315 318 317 316
233 233 236 240 239 238 237 236 234 233 233 232 230 228 226 226 227 227 226 225 225 224 224 225 224 224 224 224 225 226 228 229 227 223 219 215 214 212 209 206 205 202 200 197 193 190 187 185 184 181 178 174 169 164 159 156 156 155 154 156 158 154 152 160 171 187 202 209 219 239 259 270 284 300 313 319 321 320 319 317 315 313 311 308 306
236 236 238 239 238 238 237 234 233 233 232 232 230 226 224 223 224 224 223 222 222 221 222 222 222 223 223 223 224 225 226 225 220 216 214 211 209 208 206 206 204 200 198 196 192 188 184 180 176 173 172 169 164 160 158 158 160 162 162 162 164 165 172 184 194 209 219 222 231 257 281 288 295 309 319 321 319 318 317 315 315 313 307 302 301
238 238 240 239 238 238 236 235 234 234 232 230 227 224 222 222 221 221 220 218 218 217 218 218 219 221 222 223 224 224 223 220 215 211 208 205 203 204 205 205 202 199 198 195 191 188 184 178 173 169 168 167 163 161 161 161 163 165 167 169 172 178 191 206 219 235 250 261 272 293 309 309 307 315 322 324 320 319 317 314 314 312 306 303 302
240 240 240 240 239 238 237 235 234 232 229 226 223 221 220 218 217 217 216 216 216 216 216 217 218 220 221 222 221 221 218 214 210 207 203 200 201 203 204 203 200 198 197 194 191 187 182 177 172 169 167 166 164 162 162 163 163 165 169 174 182 193 209 226 240 259 287 309 311 320 333 330 325 327 329 327 321 315 313 312 312 311 307 303 302
241 241 240 240 240 239 237 235 232 229 226 223 221 219 216 214 214 214 213 213 214 214 215 217 218 218 219 219 217 215 212 208 204 201 198 199 202 203 202 200 197 195 193 190 187 183 179 176 173 170 166 164 163 163 164 163 162 166 173 181 193 206 219 232 253 280 315 350 349 343 348 343 335 330 323 317 313 311 313 311 309 308 302 298 300
244 243 242 242 241 239 236 233 230 227 223 220 218 216 214 213 213 212 210 208 208 211 214 216 218 218 217 214 212 208 203 199 197 195 195 197 198 199 198 195 193 191 188 186 184 181 178 176 173 168 164 163 164 164 165 165 164 172 180 186 199 211 216 233 261 315 23 37 31 360 349 335 325 319 314 315 315 314 313 308 307 309 306 303 306
247 247 246 245 243 240 236 232 229 225 221 218 217 215 213 212 212 211 209 208 208 210 212 213 214 215 214 211 209 206 201 197 196 195 195 195 195 195 194 190 186 185 182 181 182 180 177 175 172 167 164 165 163 163 167 170 173 180 185 189 199 206 202 204 172 99 77 69 67 42 5 343 338 335 331 332 324 312 310 313 319 328 328 321 319
252 252 252 250 246 242 237 233 229 225 221 219 217 215 213 212 211 209 207 208 207 207 207 207 206 208 210 210 209 207 203 199 197 197 197 197 196 195 191 185 180 178 177 176 177 177 174 172 170 167 165 163 162 165 171 176 180 186 189 191 195 188 176 167 133 114 107 96 74 13 354 356 2 357 345 341 323 301 319 337 342 349 345 334 329
261 258 256 252 246 241 236 232 229 225 222 219 216 214 212 208 205 203 202 203 202 200 200 201 201 200 202 204 205 204 201 195 192 193 195 196 196 194 189 183 177 174 173 173 172 172 172 171 169 168 165 163 165 172 178 182 186 191 194 194 187 171 163 153 135 139 141 123 351 320 351 54 65 86 124 127 53 349 352 351 347 350 349 338 331
264 258 253 247 241 237 233 230 228 225 222 218 213 210 207 204 200 198 196 196 194 193 192 193 193 192 194 198 199 200 199 192 187 190 193 194 195 193 188 183 179 174 171 171 172 171 171 170 169 169 169 169 173 180 186 189 190 192 193 182 165 159 161 159 159 172 202 233 221 144 123 124 126 132 143 330 335 335 339 343 340 336 337 334 326
262 255 247 241 235 230 227 224 222 220 217 213 207 202 199 199 197 194 191 189 186 184 183 184 184 182 186 193 194 193 196 192 185 188 192 193 193 193 189 185 183 178 171 169 171 172 171 170 170 173 175 177 181 185 188 191 193 193 182 157 156 169 179 183 191 208 214 188 158 140 136 140 140 142 311 318 324 326 329 333 328 316 311 311 307
256 247 239 232 227 222 219 217 214 213 211 206 201 195 191 191 190 188 186 182 177 175 175 175 174 172 176 183 186 187 189 188 184 186 191 192 191 191 189 186 185 181 174 170 170 171 172 173 174 177 180 182 185 185 184 189 192 182 170 172 182 193 201 205 204 198 179 160 150 142 139 142 147 249 315 322 324 322 323 322 317 308 304 301 296
244 236 228 222 217 213 211 210 208 207 204 199 194 188 185 184 183 182 181 177 172 169 169 169 168 166 167 173 178 181 182 182 183 185 187 188 188 189 187 184 182 180 175 172 172 173 174 176 178 181 183 183 183 181 181 188 187 176 176 189 199 204 204 200 190 175 160 150 143 135 137 148 171 286 315 319 316 313 311 310 307 306 303 301 302
229 224 217 212 209 205 203 203 202 201 197 193 188 183 179 178 177 177 177 174 170 167 166 168 167 164 165 168 172 176 178 178 179 180 180 182 184 185 184 181 179 178 175 174 177 178 178 179 179 179 179 177 174 177 183 188 189 187 191 200 202 198 193 186 176 165 153 148 148 147 153 169 216 300 305 305 305 303 303 304 304 305 305 307 317
221 215 209 206 203 199 195 191 191 191 189 188 187 184 180 178 175 174 174 173 172 170 168 169 168 165 165 166 168 171 174 176 177 176 176 178 181 184 183 180 178 178 178 179 181 180 177 177 176 174 176 177 179 184 187 188 189 192 197 195 189 184 182 175 170 164 158 158 162 164 171 198 270 293 293 297 300 303 311 316 318 323 327 331 341
216 210 205 200 194 191 187 181 179 180 180 182 183 182 181 179 176 175 175 174 173 172 171 171 169 166 165 165 166 166 169 172 173 172 171 169 169 172 175 175 177 178 177 176 175 172 170 171 172 173 175 176 181 186 185 183 184 185 184 180 178 178 177 174 173 172 169 170 174 178 198 255 283 288 291 298 307 315 325 329 333 340 343 343 348
213 207 201 194 188 186 182 177 174 173 175 179 180 179 180 180 179 180 182 181 178 176 175 174 174 171 167 166 165 164 167 171 171 170 168 165 162 162 163 165 168 170 168 166 165 165 165 165 166 168 171 171 173 175 175 176 177 176 174 175 177 179 179 179 179 180 181 183 188 206 245 271 280 287 297 310 319 327 334 340 344 346 347 350 353
210 203 195 189 185 182 179 176 174 172 173 176 179 181 184 185 185 187 190 190 187 183 181 181 180 178 174 171 169 169 173 175 174 172 171 168 166 164 162 162 165 166 165 165 163 161 161 163 164 167 171 171 169 168 168 169 170 173 178 183 184 184 187 192 195 196 199 209 227 247 262 272 277 287 304 319 331 337 340 344 348 347 347 352 357
203 196 190 186 183 179 176 175 174 173 171 170 170 174 182 188 190 191 192 195 196 193 190 189 187 184 181 178 177 177 178 177 174 173 173 172 172 171 169 168 169 167 167 169 167 164 165 168 170 172 173 171 170 169 169 171 173 177 184 188 189 191 196 203 209 212 220 238 256 264 263 265 275 292 310 324 337 345 344 345 349 348 349 353 355
196 192 190 187 183 180 177 175 173 171 169 167 164 161 164 176 190 197 196 195 198 201 201 198 194 190 187 184 184 184 182 177 174 174 175 174 175 174 172 173 173 172 173 175 174 172 173 172 172 174 175 174 174 174 175 177 179 181 185 189 195 201 205 209 214 224 239 254 262 261 258 265 281 295 310 325 336 345 345 344 345 346 349 353 351
194 192 192 190 187 184 180 176 172 169 167 166 164 159 155 153 162 181 192 193 195 198 200 196 192 193 192 188 186 186 184 180 178 179 179 179 179 177 176 176 177 178 182 183 179 178 179 176 174 175 176 177 179 180 182 183 185 188 191 193 198 204 209 214 222 233 247 252 248 247 254 266 278 287 304 319 328 337 341 340 341 343 345 348 347
197 194 192 189 188 187 183 177 174 171 168 166 163 160 156 151 148 151 160 169 177 184 187 184 181 182 185 185 185 185 182 179 179 179 179 181 180 178 177 177 175 177 184 187 182 179 179 178 176 177 180 183 185 186 188 190 192 198 202 203 203 206 210 217 227 236 242 240 235 241 251 253 256 272 292 307 316 327 333 333 335 338 339 339 340
204 199 194 189 188 188 185 181 177 174 172 169 165 162 160 157 152 147 145 147 151 159 166 171 172 172 173 175 176 175 174 174 175 175 177 179 177 173 170 168 168 174 184 187 183 178 177 178 179 182 185 188 189 189 191 195 199 203 205 207 209 211 213 220 228 232 233 230 228 236 242 241 246 260 273 288 303 312 319 324 326 329 332 332 331
211 206 198 191 189 189 187 185 180 176 173 169 166 162 160 157 154 151 148 146 143 142 145 153 161 166 166 165 164 163 164 166 167 169 174 176 171 163 159 161 165 173 182 185 183 180 180 183 185 187 189 191 192 194 197 200 202 203 205 207 211 213 218 222 224 224 225 225 225 230 232 233 241 255 269 284 296 300 306 315 318 320 323 323 323
212 207 198 193 191 188 187 185 181 177 173 170 166 162 159 157 155 152 149 146 142 138 136 139 144 150 154 155 153 153 155 158 158 160 164 165 163 161 163 166 171 176 180 185 187 187 189 191 190 190 192 195 196 199 202 203 204 206 209 212 214 217 220 220 218 218 219 219 221 227 230 231 238 249 264 280 290 293 298 307 310 310 313 314 316
209 203 196 193 190 186 184 183 180 177 174 171 167 162 159 158 156 152 149 146 143 140 138 139 139 140 143 145 147 148 150 152 153 154 157 162 167 172 173 174 176 179 183 187 190 190 193 195 194 194 197 200 201 202 204 206 208 210 213 216 219 221 220 218 216 217 218 218 221 226 229 233 239 247 256 265 275 282 288 295 299 300 303 305 308
207 202 197 193 189 185 182 180 178 176 174 172 168 163 159 158 156 154 151 150 148 145 145 145 145 144 146 148 151 151 151 151 154 157 162 169 177 182 182 182 182 185 187 189 191 192 195 198 199 201 204 204 204 205 206 209 211 213 217 220 220 217 215 215 217 217 218 221 224 227 231 234 237 244 252 260 268 278 285 289 293 294 297 300 303
205 202 199 195 189 184 181 178 175 174 173 172 170 165 161 158 158 157 155 153 151 149 148 148 148 148 150 153 156 156 156 157 160 163 167 173 179 184 186 187 188 189 190 190 192 195 199 200 202 204 205 206 207 209 211 215 217 219 220 220 217 215 215 216 218 219 219 222 225 229 234 238 238 242 251 258 268 277 282 285 288 291 293 297 301
200 196 195 192 187 183 180 177 174 173 173 173 171 168 165 163 163 162 159 156 154 153 152 152 153 153 155 158 160 162 162 164 167 169 171 175 180 184 187 191 192 191 191 192 194 198 201 202 203 205 207 209 212 214 216 220 221 221 221 218 217 219 220 220 221 223 224 225 228 231 236 238 241 246 253 260 268 275 279 284 288 291 293 295 299
197 191 189 188 185 182 179 176 176 175 176 176 174 171 170 170 169 166 163 161 159 158 158 158 159 160 162 164 167 170 171 170 171 174 177 179 182 185 188 192 193 191 192 197 200 203 204 206 208 209 211 213 216 216 218 219 219 219 221 220 219 222 223 223 224 227 229 230 233 235 239 243 246 250 256 263 268 273 278 284 288 291 293 293 294
194 188 185 184 183 180 177 177 177 178 178 178 177 176 176 175 172 170 168 165 164 162 161 162 163 165 167 171 176 180 182 179 178 180 182 183 185 185 185 187 189 191 194 200 205 208 210 211 214 217 218 219 220 220 220 221 221 221 223 223 224 226 228 230 230 231 233 236 239 241 245 249 253 257 262 266 269 272 278 283 285 287 289 289 291
193 189 185 183 182 179 178 177 177 177 179 180 179 179 179 176 174 173 170 168 167 167 164 164 164 164 165 173 181 186 187 188 188 187 185 184 184 184 185 187 190 193 197 202 206 210 214 216 218 220 222 222 223 224 225 225 226 227 228 230 232 234 235 237 238 239 240 243 245 246 248 251 254 259 264 267 269 272 276 279 283 285 287 288 290
189 185 183 181 178 177 178 179 178 178 180 181 179 179 179 178 176 175 173 171 171 171 169 167 165 163 163 172 182 185 184 185 186 185 184 183 184 184 186 188 192 196 201 207 212 214 216 218 218 219 222 224 225 227 229 229 231 234 236 238 240 242 244 247 249 249 249 248 247 248 251 252 255 260 264 266 268 270 272 275 279 282 283 285 286
184 180 178 175 174 175 177 180 180 179 179 178 176 176 177 178 176 175 174 173 173 173 171 169 168 167 169 175 180 182 182 182 182 181 182 184 184 186 188 190 195 202 207 213 217 219 220 222 223 225 228 231 233 234 236 237 239 241 243 245 249 253 257 259 257 252 250 250 250 252 254 256 259 262 264 265 267 269 271 274 275 276 277 279 281
183 179 174 171 169 170 172 175 176 175 174 174 173 172 173 176 177 177 177 176 175 174 172 170 171 174 177 179 181 182 183 182 179 178 179 182 185 189 193 196 201 208 215 219 222 225 226 229 233 235 237 239 240 241 243 244 246 248 250 252 257 261 263 262 259 257 256 257 257 257 256 257 260 262 263 265 267 269 271 272 272 272 274 276 278
181 175 170 166 165 165 167 169 171 170 169 171 172 171 171 174 176 177 178 178 176 175 173 172 175 178 181 181 182 183 182 180 179 178 180 184 187 192 198 203 209 216 222 225 229 233 236 240 243 245 246 247 248 248 250 252 253 254 257 259 262 265 266 265 265 265 264 262 261 259 258 259 260 262 263 265 266 267 269 270 270 270 271 271 273
175 169 166 165 165 164 165 166 167 167 167 168 169 169 170 171 173 174 175 175 174 174 173 173 175 179 180 181 182 180 177 177 177 178 180 186 192 198 205 212 217 222 228 232 236 239 242 245 248 248 249 251 252 253 255 256 257 258 261 264 266 268 269 269 269 268 267 264 262 261 260 260 261 262 264 265 266 266 268 268 267 268 268 268 269
171 165 164 164 163 163 164 165 164 164 164 164 164 164 165 167 168 168 169 170 171 172 174 175 177 179 180 179 175 170 169 172 175 179 185 193 200 207 214 220 225 231 236 240 243 245 247 248 250 252 253 255 256 257 258 259 260 262 265 267 269 270 269 269 268 268 266 263 262 261 260 261 262 263 264 265 266 266 266 265 265 266 265 264 265
164 161 160 160 159 160 161 161 160 160 160 160 160 159 159 161 162 163 165 167 168 170 174 177 178 178 178 175 171 169 170 173 178 185 193 201 209 216 223 229 234 239 243 246 248 251 252 253 254 256 257 258 260 262 263 265 267 269 270 271 271 270 269 268 267 265 264 263 262 261 260 261 262 263 264 265 264 263 263 264 264 264 263 262 262
155 154 154 154 154 154 155 156 156 156 157 158 158 158 158 159 159 160 163 165 166 167 170 172 171 170 169 169 169 171 173 178 185 193 200 208 217 225 232 238 244 248 252 254 256 257 259 261 263 264 265 266 268 269 271 272 274 275 275 275 273 271 270 269 267 265 263 261 261 260 260 260 262 263 265 265 264 263 263 263 262 262 262 261 260